Change the Weather History Date:

Wednesday, October 29, 2014

  Actual Average (KDHN) Record (KDHN)
Temperature  
Mean Temperature 72 °F 64 °F  
Max Temperature 80 °F 76 °F 87 °F (1940)
Min Temperature 63 °F 51 °F 32 °F (1952)
Degree Days  
Heating Degree Days 0 4  
Month to date heating degree days 48  
Since 1 July heating degree days 50  
Cooling Degree Days 6 3  
Month to date cooling degree days 131  
Year to date cooling degree days 2359  
Growing Degree Days 22 (Base 50)    
Moisture  
Dew Point 63 °F    
Average Humidity 81    
Maximum Humidity 97    
Minimum Humidity 54    
Precipitation  
Precipitation 0.00 in 0.12 in 3.54 in (1959)
Month to date precipitation 3.17  
Year to date precipitation 45.15  
Sea Level Pressure  
Sea Level Pressure 30.04 in    
Wind  
Wind Speed 3 mph (NW)    
Max Wind Speed 12 mph    
Max Gust Speed -    
Visibility 8 miles    
Events      
T = Trace of Precipitation, MM = Missing Value Source: NWS Daily Summary

Daily Weather History Graph

Daily Weather History Graph

Search for Another Location

Airport or City:

Trip Planner

Search our weather history database for the weather conditions in past years. The results will help you decide how hot, cold, wet, or windy it might be!

Date:

Astronomy

Oct. 29, 2014 Rise Set
Actual Time 6:56 AM CDT 5:56 PM CDT
Civil Twilight 6:31 AM CDT 6:21 PM CDT
Nautical Twilight 6:02 AM CDT 6:50 PM CDT
Astronomical Twilight 5:34 AM CDT 7:18 PM CDT
Moon 12:09 PM CDT (10/29) 11:09 PM CDT (10/29)
Length of Visible Light 11h 50m
Length of Day
11h 00m
Waxing Crescent, 34% of the Moon is Illuminated
Oct 29
Waxing Crescent
Oct 30
First Quarter
Nov 6
Full
Nov 14
Last Quarter
Nov 22
New

Hourly Weather History & Observations

Time (CDT) Temp. Heat Index Dew Point Humidity Pressure Visibility Wind Dir Wind Speed Gust Speed Precip Events Conditions
12:53 AM 66.0 °F - 63.0 °F 90% 30.09 in 9.0 mi SSW 4.6 mph - N/A   Mostly Cloudy
1:53 AM 66.0 °F - 64.0 °F 93% 30.07 in 8.0 mi South 3.5 mph - N/A   Overcast
2:53 AM 64.0 °F - 63.0 °F 96% 30.06 in 4.0 mi Calm Calm - N/A   Mostly Cloudy
3:53 AM 63.0 °F - 62.1 °F 97% 30.05 in 3.0 mi Calm Calm - N/A   Partly Cloudy
4:15 AM 64.0 °F - 63.0 °F 96% 30.05 in 2.5 mi Calm Calm - N/A   Scattered Clouds
4:26 AM 64.0 °F - 62.1 °F 93% 30.06 in 3.0 mi Calm Calm - N/A   Mostly Cloudy
4:50 AM 64.4 °F - 62.6 °F 94% 30.06 in 2.0 mi Calm Calm - N/A   Mostly Cloudy
4:53 AM 63.0 °F - 62.1 °F 97% 30.06 in 2.0 mi Calm Calm - N/A   Mostly Cloudy
5:08 AM 64.0 °F - 63.0 °F 96% 30.06 in 3.0 mi Calm Calm - N/A   Mostly Cloudy
5:53 AM 64.0 °F - 62.1 °F 93% 30.06 in 3.0 mi Calm Calm - N/A   Overcast
6:53 AM 64.0 °F - 62.1 °F 93% 30.06 in 4.0 mi Calm Calm - N/A   Overcast
7:53 AM 66.0 °F - 64.0 °F 93% 30.08 in 3.0 mi Calm Calm - N/A   Overcast
8:53 AM 69.1 °F - 64.9 °F 87% 30.09 in 5.0 mi South 3.5 mph - N/A   Mostly Cloudy
9:53 AM 75.0 °F - 66.9 °F 76% 30.08 in 9.0 mi WNW 3.5 mph - N/A   Partly Cloudy
10:53 AM 78.1 °F - 66.0 °F 66% 30.08 in 10.0 mi SW 11.5 mph - N/A   Mostly Cloudy
11:21 AM 77.0 °F - 66.0 °F 69% 30.08 in 10.0 mi West 5.8 mph - N/A   Mostly Cloudy
11:31 AM 78.1 °F - 66.0 °F 66% 30.07 in 10.0 mi Variable 4.6 mph - N/A   Scattered Clouds
11:53 AM 80.1 °F 82.1 °F 66.0 °F 62% 30.05 in 10.0 mi WNW 4.6 mph - N/A   Partly Cloudy
12:53 PM 80.1 °F 81.2 °F 62.1 °F 54% 30.02 in 10.0 mi West 6.9 mph - N/A   Partly Cloudy
1:53 PM 77.0 °F - 64.9 °F 66% 29.99 in 10.0 mi NNW 6.9 mph - 0.00 in   Mostly Cloudy
2:53 PM 80.1 °F 81.9 °F 64.9 °F 60% 29.97 in 10.0 mi West 5.8 mph - N/A   Mostly Cloudy
3:53 PM 79.0 °F - 66.9 °F 66% 29.97 in 10.0 mi Calm Calm - N/A   Mostly Cloudy
4:53 PM 78.1 °F - 64.0 °F 62% 29.98 in 10.0 mi NW 4.6 mph - N/A   Scattered Clouds
5:53 PM 75.0 °F - 64.0 °F 69% 29.98 in 10.0 mi Calm Calm - N/A   Clear
6:53 PM 73.0 °F - 63.0 °F 71% 30.00 in 10.0 mi North 5.8 mph - N/A   Overcast
7:53 PM 70.0 °F - 63.0 °F 78% 30.01 in 10.0 mi North 6.9 mph - N/A   Mostly Cloudy
8:53 PM 68.0 °F - 64.0 °F 87% 30.02 in 10.0 mi NNW 3.5 mph - N/A   Clear
9:53 PM 66.9 °F - 63.0 °F 87% 30.03 in 10.0 mi North 6.9 mph - N/A   Partly Cloudy
10:06 PM 66.9 °F - 63.0 °F 87% 30.04 in 10.0 mi North 4.6 mph - N/A   Mostly Cloudy
10:44 PM 66.0 °F - 61.0 °F 84% 30.04 in 10.0 mi North 8.1 mph - N/A   Scattered Clouds
10:53 PM 64.9 °F - 60.1 °F 84% 30.03 in 10.0 mi North 8.1 mph - N/A   Clear
11:53 PM 64.0 °F - 57.9 °F 80% 30.04 in 10.0 mi North 10.4 mph - N/A   Scattered Clouds